User: anonymous   Login
Location: Barrialito
(10.3588°N, 66.9747°W)
Time: 02:21:01
(UTC+00:00)
Language:

H-2A R/B - Orbit

View from above orbital plane
View from above orbital plane
View from above satellite
View from above satellite

Ground track
Ground track

The orbit data is extracted from the following two-line orbital elements,

1 27601U 02056E   22145.57655411  .00000250  00000-0  10518-3 0  9992
2 27601  98.1767 153.5241 0071366 330.5179 137.0816 14.32069637 15900
Epoch (UTC): 25 May 2022 13:50:14
Eccentricity: 0.0071366
inclination: 98.1767°
perigee height: 734 km
apogee height: 836 km
right ascension of ascending node: 153.5241°
argument of perigee: 330.5179°
revolutions per day: 14.32069637
mean anomaly at epoch: 137.0816°
orbit number at epoch: 1590

The dashed part of the orbit path shows where the satellite is in the earth's shadow,  

DLR